カタログに戻る

STARLINK-35974

運用中通信VLEO
NORAD 66862·PAYLOAD·🇺🇸 United States

打ち上げ Dec 2, 2025 から Cape Canaveral Space Force Station

Loading…

次のパス (今後24時間)

TLE

最新Source: CelesTrak SupGP

元期: Sep 14, 2026, 20:46 UTC

1 66862C 25281Q   26257.86576389  .00014045  00000+0  50869-3 0  2571
2 66862  43.0029 355.1055 0001471 271.9221 229.8973 15.27572062    17

AllMySatでSTARLINK-35974をリアルタイム追跡

Download on the App Store